KLM41F EHAM-LFMN

Flight info

Callsign KLM41F
Flight time 1h 42m
Altitude 37000
Route WOODY N872 MEDIL DCT KOVIN DCT DUCRA UM728 KETEX DCT KOTIS DCT KUKOR DCT UTUVA DCT LERGA DCT LIQID DCT LATAM DCT TUNUR DCT NISAR
Aircraft A21N/M-SDE3FGHIRWY/LB1

Departure

Time 2026-05-01 13:01
Airport Amsterdam Airport Schiphol (EHAM)

Arrival

Time 2026-05-01 14:44
Airport Nice-Côte d'Azur Airport (LFMN)
Time Latitude Longitude Altitude Speed Heading
2026-05-01 12:47 52.30891 4.77236 11 ft 0 kts
2026-05-01 12:50 52.30888 4.77236 11 ft 2 kts
2026-05-01 12:50 52.30873 4.77235 11 ft 2 kts
2026-05-01 12:50 52.30857 4.77234 11 ft 2 kts 18°
2026-05-01 12:51 52.30845 4.77221 11 ft 2 kts 49°
2026-05-01 12:51 52.30838 4.77199 11 ft 2 kts 80°
2026-05-01 12:51 52.30837 4.77185 11 ft 0 kts 81°
2026-05-01 12:54 52.30837 4.77191 11 ft 1 kts 82°
2026-05-01 12:54 52.30839 4.77210 11 ft 2 kts 82°
2026-05-01 12:55 52.30840 4.77328 11 ft 8 kts 93°
2026-05-01 12:55 52.30835 4.77450 9 ft 13 kts 94°
2026-05-01 12:55 52.30841 4.77581 8 ft 10 kts 55°
2026-05-01 12:56 52.30908 4.77612 9 ft 10 kts
2026-05-01 12:56 52.30984 4.77619 9 ft 11 kts
2026-05-01 12:56 52.31067 4.77626 8 ft 13 kts
2026-05-01 12:56 52.31165 4.77636 6 ft 14 kts
2026-05-01 12:57 52.31267 4.77646 3 ft 12 kts
2026-05-01 12:57 52.31449 4.77640 0 ft 11 kts 338°
2026-05-01 12:57 52.31511 4.77565 0 ft 9 kts 322°
2026-05-01 12:58 52.31576 4.77581 0 ft 11 kts 53°
2026-05-01 12:58 52.31590 4.77680 -2 ft 4 kts 87°
2026-05-01 12:58 52.31590 4.77685 -2 ft 0 kts 87°
2026-05-01 13:00 52.31593 4.77764 -2 ft 9 kts 87°
2026-05-01 13:00 52.31597 4.77892 -3 ft 10 kts 87°
2026-05-01 13:01 52.31507 4.77959 -3 ft 32 kts 182°
2026-05-01 13:01 52.30991 4.77911 1 ft 113 kts 182°
2026-05-01 13:01 52.28939 4.77688 927 ft 158 kts 178°
2026-05-01 13:02 52.27872 4.77929 1630 ft 162 kts 164°
2026-05-01 13:07 51.87820 4.73244 16939 ft 363 kts 203°
2026-05-01 13:07 51.85518 4.71441 17672 ft 367 kts 204°
2026-05-01 13:07 51.83999 4.70245 18154 ft 370 kts 204°
2026-05-01 13:08 51.80880 4.67796 19055 ft 376 kts 204°
2026-05-01 13:08 51.79308 4.66566 19480 ft 379 kts 204°
2026-05-01 13:08 51.76142 4.64095 20307 ft 385 kts 204°
2026-05-01 13:08 51.73711 4.62202 20932 ft 390 kts 204°
2026-05-01 13:09 51.71259 4.60297 21553 ft 394 kts 204°
2026-05-01 13:09 51.68788 4.58381 22150 ft 397 kts 204°
2026-05-01 13:09 51.66298 4.56455 22721 ft 402 kts 204°
2026-05-01 13:09 51.64605 4.55150 23101 ft 404 kts 204°
2026-05-01 13:10 51.62043 4.53179 23661 ft 408 kts 204°
2026-05-01 13:10 51.58601 4.50530 24397 ft 413 kts 204°
2026-05-01 13:10 51.56017 4.48542 24950 ft 416 kts 204°
2026-05-01 13:10 51.53411 4.46539 25471 ft 418 kts 204°
2026-05-01 13:11 51.50787 4.44524 25951 ft 422 kts 204°
2026-05-01 13:11 51.49015 4.43165 26266 ft 424 kts 204°
2026-05-01 13:11 51.45448 4.40431 26882 ft 428 kts 204°
2026-05-01 13:11 51.42770 4.38383 27336 ft 430 kts 204°
2026-05-01 13:12 51.40057 4.36313 27761 ft 433 kts 204°
2026-05-01 13:12 51.37336 4.34241 28178 ft 435 kts 204°
2026-05-01 13:12 51.34571 4.32141 28590 ft 438 kts 204°
2026-05-01 13:12 51.31840 4.30070 28983 ft 440 kts 204°
2026-05-01 13:13 51.29067 4.27965 29367 ft 442 kts 204°
2026-05-01 13:13 51.26274 4.25843 29861 ft 441 kts 204°
2026-05-01 13:13 51.23531 4.23761 30405 ft 439 kts 204°
2026-05-01 13:13 51.21675 4.22356 30751 ft 438 kts 204°
2026-05-01 13:14 51.18943 4.20291 31225 ft 436 kts 204°
2026-05-01 13:14 51.15212 4.17782 31817 ft 434 kts 199°
2026-05-01 13:14 51.12384 4.16195 32243 ft 433 kts 198°
2026-05-01 13:14 51.09555 4.14651 32682 ft 431 kts 198°
2026-05-01 13:15 51.06738 4.13099 33069 ft 430 kts 198°
2026-05-01 13:15 51.03912 4.11539 33426 ft 430 kts 198°
2026-05-01 13:15 51.01064 4.09973 33786 ft 430 kts 198°
2026-05-01 13:15 50.98259 4.08436 34140 ft 429 kts 198°
2026-05-01 13:16 50.95421 4.06884 34496 ft 428 kts 198°
2026-05-01 13:16 50.92628 4.05363 34811 ft 427 kts 198°
2026-05-01 13:16 50.89810 4.03829 35116 ft 427 kts 198°
2026-05-01 13:17 50.81541 3.98701 35890 ft 427 kts 201°
2026-05-01 13:17 50.78785 3.96940 36099 ft 428 kts 201°
2026-05-01 13:18 50.73211 3.93383 36510 ft 429 kts 201°
2026-05-01 13:18 50.70462 3.91628 36712 ft 430 kts 201°
2026-05-01 13:18 50.67689 3.89862 36934 ft 431 kts 201°
2026-05-01 13:18 50.64933 3.88107 37142 ft 432 kts 201°
2026-05-01 13:19 50.60249 3.85132 37200 ft 434 kts 201°
2026-05-01 13:20 50.51029 3.79014 37206 ft 434 kts 202°
2026-05-01 13:20 50.45468 3.75192 37203 ft 434 kts 202°
2026-05-01 13:21 50.38060 3.70143 37200 ft 433 kts 202°
2026-05-01 13:21 50.31633 3.65794 37196 ft 433 kts 202°
2026-05-01 13:22 50.27004 3.62671 37198 ft 432 kts 202°
2026-05-01 13:22 50.20575 3.58345 37198 ft 433 kts 202°
2026-05-01 13:23 50.15060 3.54640 37196 ft 432 kts 202°
2026-05-01 13:23 50.09528 3.50932 37190 ft 432 kts 202°
2026-05-01 13:24 50.04004 3.47240 37185 ft 432 kts 201°
2026-05-01 13:25 49.95740 3.41731 37188 ft 432 kts 201°
2026-05-01 13:25 49.90218 3.38062 37184 ft 432 kts 201°
2026-05-01 13:26 49.84696 3.34402 37184 ft 431 kts 201°
2026-05-01 13:26 49.79201 3.30770 37191 ft 431 kts 201°
2026-05-01 13:27 49.73677 3.27124 37186 ft 430 kts 201°
2026-05-01 13:27 49.65419 3.21692 37187 ft 429 kts 201°
2026-05-01 13:28 49.57118 3.16251 37186 ft 430 kts 201°
2026-05-01 13:29 49.46338 3.08326 37190 ft 432 kts 209°
2026-05-01 13:31 49.31251 2.93113 37168 ft 433 kts 211°
2026-05-01 13:32 49.18689 2.80452 37164 ft 433 kts 211°
2026-05-01 13:33 49.06107 2.67842 37169 ft 433 kts 211°
2026-05-01 13:34 48.96039 2.57810 37150 ft 433 kts 211°
2026-05-01 13:35 48.88472 2.50315 37146 ft 432 kts 211°
2026-05-01 13:36 48.80935 2.42866 37175 ft 433 kts 211°
2026-05-01 13:36 48.73351 2.35396 37145 ft 433 kts 212°
2026-05-01 13:37 48.69160 2.31277 37166 ft 432 kts 211°
2026-05-01 13:37 48.63258 2.25680 37175 ft 430 kts 205°
2026-05-01 13:38 48.57635 2.22646 37174 ft 429 kts 191°
2026-05-01 13:38 48.54702 2.21992 37164 ft 428 kts 184°
2026-05-01 13:39 48.48776 2.22422 37449 ft 429 kts 170°
2026-05-01 13:39 48.45885 2.23399 37269 ft 428 kts 167°
2026-05-01 13:39 48.42992 2.24485 37210 ft 427 kts 166°
2026-05-01 13:40 48.37224 2.26677 37165 ft 428 kts 166°
2026-05-01 13:40 48.31472 2.28848 37164 ft 429 kts 166°
2026-05-01 13:41 48.25666 2.31066 37161 ft 429 kts 166°
2026-05-01 13:41 48.19901 2.33380 37158 ft 430 kts 166°
2026-05-01 13:42 48.14135 2.35691 37156 ft 431 kts 165°
2026-05-01 13:42 48.08421 2.38462 37163 ft 431 kts 162°
2026-05-01 13:43 48.02779 2.41268 37153 ft 432 kts 162°
2026-05-01 13:43 47.97042 2.44110 37164 ft 432 kts 162°
2026-05-01 13:44 47.91382 2.46916 37169 ft 432 kts 162°
2026-05-01 13:44 47.85677 2.49732 37169 ft 432 kts 162°
2026-05-01 13:45 47.79965 2.52548 37170 ft 433 kts 162°
2026-05-01 13:45 47.74275 2.55348 37173 ft 433 kts 163°
2026-05-01 13:46 47.68553 2.58156 37173 ft 433 kts 163°
2026-05-01 13:46 47.62865 2.60941 37180 ft 433 kts 163°
2026-05-01 13:47 47.57122 2.63748 37178 ft 433 kts 163°
2026-05-01 13:47 47.51413 2.66527 37178 ft 434 kts 164°
2026-05-01 13:48 47.45674 2.69319 37176 ft 435 kts 164°
2026-05-01 13:48 47.39945 2.72099 37183 ft 435 kts 165°
2026-05-01 13:49 47.34191 2.74879 37182 ft 436 kts 164°
2026-05-01 13:49 47.28470 2.77641 37178 ft 436 kts 165°
2026-05-01 13:50 47.22670 2.80434 37178 ft 437 kts 165°
2026-05-01 13:50 47.16895 2.83214 37181 ft 438 kts 165°
2026-05-01 13:51 47.11095 2.85998 37187 ft 440 kts 165°
2026-05-01 13:51 47.05325 2.88834 37190 ft 441 kts 164°
2026-05-01 13:52 46.99503 2.91738 37196 ft 443 kts 164°
2026-05-01 13:52 46.93663 2.94637 37189 ft 443 kts 164°
2026-05-01 13:53 46.88829 2.97028 37199 ft 443 kts 164°
2026-05-01 13:53 46.79136 3.01806 37189 ft 442 kts 165°
2026-05-01 13:54 46.73278 3.04684 37194 ft 442 kts 165°
2026-05-01 13:54 46.67480 3.07524 37191 ft 442 kts 165°
2026-05-01 13:55 46.61664 3.10366 37190 ft 442 kts 164°
2026-05-01 13:55 46.55847 3.13203 37191 ft 443 kts 164°
2026-05-01 13:56 46.50969 3.15579 37197 ft 443 kts 164°
2026-05-01 13:56 46.44186 3.18874 37193 ft 443 kts 164°
2026-05-01 13:57 46.39308 3.21240 37198 ft 443 kts 164°
2026-05-01 13:57 46.32525 3.24519 37194 ft 443 kts 164°
2026-05-01 13:58 46.26687 3.27336 37198 ft 443 kts 164°
2026-05-01 13:58 46.20866 3.30137 37197 ft 443 kts 164°
2026-05-01 13:59 46.14997 3.32955 37209 ft 444 kts 164°
2026-05-01 13:59 46.09152 3.35754 37208 ft 444 kts 164°
2026-05-01 14:00 46.03323 3.38540 37207 ft 444 kts 164°
2026-05-01 14:00 45.97441 3.41347 37202 ft 444 kts 164°
2026-05-01 14:01 45.91612 3.44121 37204 ft 444 kts 164°
2026-05-01 14:01 45.85771 3.46894 37205 ft 444 kts 164°
2026-05-01 14:02 45.79880 3.49685 37207 ft 444 kts 164°
2026-05-01 14:02 45.74021 3.52455 37214 ft 444 kts 164°
2026-05-01 14:03 45.68193 3.55204 37220 ft 444 kts 164°
2026-05-01 14:03 45.62333 3.57961 37230 ft 444 kts 164°
2026-05-01 14:04 45.56454 3.60721 37237 ft 444 kts 164°
2026-05-01 14:04 45.51586 3.63001 37231 ft 443 kts 164°
2026-05-01 14:05 45.44765 3.66190 37233 ft 443 kts 165°
2026-05-01 14:05 45.38909 3.68920 37239 ft 443 kts 164°
2026-05-01 14:06 45.33078 3.71741 37237 ft 444 kts 160°
2026-05-01 14:06 45.27638 3.75968 37250 ft 448 kts 147°
2026-05-01 14:07 45.23265 3.81409 37256 ft 452 kts 134°
2026-05-01 14:08 45.17835 3.92281 37254 ft 454 kts 124°
2026-05-01 14:08 45.14428 3.99858 37252 ft 455 kts 124°
2026-05-01 14:09 45.10999 4.07367 37262 ft 455 kts 124°
2026-05-01 14:09 45.07560 4.14857 37250 ft 455 kts 124°
2026-05-01 14:10 45.04048 4.22267 37248 ft 455 kts 128°
2026-05-01 14:10 45.00041 4.29127 37251 ft 453 kts 134°
2026-05-01 14:11 44.95793 4.35648 37247 ft 453 kts 134°
2026-05-01 14:11 44.89399 4.45438 37239 ft 453 kts 134°
2026-05-01 14:12 44.85135 4.51960 37235 ft 454 kts 134°
2026-05-01 14:12 44.80866 4.58476 37229 ft 454 kts 134°
2026-05-01 14:13 44.77278 4.63940 37227 ft 454 kts 134°
2026-05-01 14:13 44.72277 4.71537 37212 ft 455 kts 134°
2026-05-01 14:14 44.67997 4.78023 37206 ft 455 kts 134°
2026-05-01 14:14 44.63719 4.84496 37209 ft 455 kts 134°
2026-05-01 14:15 44.59535 4.91155 37216 ft 456 kts 132°
2026-05-01 14:15 44.55378 4.97844 37083 ft 455 kts 132°
2026-05-01 14:16 44.53325 5.01124 36733 ft 451 kts 132°
2026-05-01 14:16 44.51247 5.04430 35805 ft 456 kts 132°
2026-05-01 14:16 44.49127 5.07801 34568 ft 466 kts 132°
2026-05-01 14:16 44.47001 5.11179 33740 ft 466 kts 132°
2026-05-01 14:17 44.44896 5.14522 33576 ft 454 kts 132°
2026-05-01 14:17 44.42826 5.17805 33358 ft 453 kts 132°
2026-05-01 14:17 44.40726 5.21130 33024 ft 453 kts 132°
2026-05-01 14:17 44.38591 5.24350 32507 ft 454 kts 135°
2026-05-01 14:18 44.36327 5.27400 31876 ft 455 kts 138°
2026-05-01 14:18 44.33942 5.30243 31676 ft 454 kts 142°
2026-05-01 14:18 44.31438 5.32985 31517 ft 456 kts 142°
2026-05-01 14:18 44.29785 5.34784 31358 ft 456 kts 142°
2026-05-01 14:19 44.26447 5.38411 31008 ft 457 kts 142°
2026-05-01 14:19 44.23953 5.41120 30599 ft 458 kts 142°
2026-05-01 14:19 44.21434 5.43856 30002 ft 458 kts 142°
2026-05-01 14:19 44.18929 5.46576 29287 ft 459 kts 142°
2026-05-01 14:20 44.16421 5.49297 28655 ft 455 kts 142°
2026-05-01 14:20 44.11518 5.54612 27734 ft 445 kts 142°
2026-05-01 14:20 44.09094 5.57236 27261 ft 441 kts 142°
2026-05-01 14:21 44.06696 5.59826 26787 ft 436 kts 142°
2026-05-01 14:21 44.04332 5.62379 26301 ft 432 kts 142°
2026-05-01 14:21 44.01972 5.64923 25817 ft 428 kts 142°
2026-05-01 14:22 43.97313 5.69936 24865 ft 421 kts 142°
2026-05-01 14:22 43.95000 5.72422 24380 ft 417 kts 142°
2026-05-01 14:22 43.92748 5.74842 23903 ft 414 kts 142°
2026-05-01 14:22 43.90458 5.77298 23405 ft 410 kts 142°
2026-05-01 14:23 43.88232 5.79683 22914 ft 407 kts 142°
2026-05-01 14:23 43.86019 5.82052 22414 ft 403 kts 142°
2026-05-01 14:23 43.83790 5.84435 21910 ft 400 kts 142°
2026-05-01 14:23 43.81604 5.86768 21409 ft 396 kts 142°
2026-05-01 14:24 43.79448 5.89066 20911 ft 393 kts 142°
2026-05-01 14:24 43.77301 5.91354 20407 ft 390 kts 142°
2026-05-01 14:24 43.75162 5.93630 19917 ft 386 kts 142°
2026-05-01 14:24 43.73040 5.95888 19409 ft 383 kts 142°
2026-05-01 14:25 43.70951 5.98108 18913 ft 379 kts 142°
2026-05-01 14:25 43.68881 6.00304 18428 ft 376 kts 141°
2026-05-01 14:25 43.66811 6.02497 17912 ft 373 kts 141°
2026-05-01 14:25 43.64766 6.04664 17427 ft 369 kts 141°
2026-05-01 14:26 43.62743 6.06806 16938 ft 366 kts 141°
2026-05-01 14:26 43.59287 6.11799 15922 ft 360 kts 121°
2026-05-01 14:26 43.58217 6.14903 15422 ft 356 kts 111°
2026-05-01 14:27 43.57342 6.18073 14939 ft 354 kts 110°
2026-05-01 14:27 43.56498 6.21216 14441 ft 352 kts 109°
2026-05-01 14:27 43.55651 6.24357 13935 ft 350 kts 110°
2026-05-01 14:28 43.53949 6.30581 13073 ft 342 kts 110°
2026-05-01 14:28 43.53119 6.33585 12846 ft 326 kts 110°
2026-05-01 14:28 43.52335 6.36416 12653 ft 308 kts 109°
2026-05-01 14:28 43.51591 6.39105 12507 ft 295 kts 109°
2026-05-01 14:29 43.50854 6.41680 12330 ft 285 kts 113°
2026-05-01 14:29 43.49893 6.43998 12213 ft 281 kts 124°
2026-05-01 14:30 43.45795 6.50151 12251 ft 294 kts 132°
2026-05-01 14:30 43.44369 6.52180 12251 ft 294 kts 131°
2026-05-01 14:30 43.42955 6.54204 12257 ft 294 kts 131°
2026-05-01 14:31 43.40107 6.58298 12017 ft 297 kts 131°
2026-05-01 14:31 43.38871 6.60505 11549 ft 295 kts 115°
2026-05-01 14:31 43.38300 6.63171 11151 ft 289 kts 94°
2026-05-01 14:31 43.38178 6.65910 10846 ft 285 kts 92°
2026-05-01 14:32 43.38092 6.68584 10454 ft 282 kts 91°
2026-05-01 14:32 43.38005 6.71278 10099 ft 281 kts 91°
2026-05-01 14:32 43.37913 6.73961 9737 ft 279 kts 92°
2026-05-01 14:32 43.37817 6.76611 9340 ft 279 kts 92°
2026-05-01 14:33 43.37717 6.79251 8985 ft 275 kts 92°
2026-05-01 14:33 43.37618 6.81828 8734 ft 269 kts 92°
2026-05-01 14:33 43.37517 6.84396 8499 ft 270 kts 92°
2026-05-01 14:33 43.37415 6.86952 8307 ft 263 kts 92°
2026-05-01 14:34 43.37317 6.89385 8241 ft 249 kts 92°
2026-05-01 14:34 43.37221 6.91743 7953 ft 245 kts 92°
2026-05-01 14:34 43.37126 6.94071 7448 ft 245 kts 92°
2026-05-01 14:34 43.37031 6.96373 6960 ft 244 kts 92°
2026-05-01 14:35 43.36934 6.98707 6579 ft 242 kts 92°
2026-05-01 14:35 43.36839 7.00996 6240 ft 240 kts 91°
2026-05-01 14:35 43.36743 7.03284 5906 ft 239 kts 92°
2026-05-01 14:35 43.36649 7.05519 5620 ft 236 kts 91°
2026-05-01 14:36 43.36556 7.07749 5321 ft 233 kts 92°
2026-05-01 14:36 43.36462 7.09957 5012 ft 231 kts 92°
2026-05-01 14:36 43.36375 7.12172 4724 ft 228 kts 89°
2026-05-01 14:36 43.36675 7.14238 4402 ft 224 kts 64°
2026-05-01 14:37 43.37660 7.15840 4193 ft 220 kts 37°
2026-05-01 14:37 43.39079 7.16599 4012 ft 219 kts
2026-05-01 14:37 43.40567 7.16612 3933 ft 208 kts
2026-05-01 14:37 43.42004 7.16553 3932 ft 205 kts
2026-05-01 14:38 43.43428 7.16497 3932 ft 204 kts
2026-05-01 14:38 43.44831 7.16445 3927 ft 204 kts
2026-05-01 14:38 43.46222 7.16387 3962 ft 193 kts
2026-05-01 14:38 43.47558 7.16273 3648 ft 192 kts
2026-05-01 14:39 43.48878 7.16139 3351 ft 188 kts
2026-05-01 14:39 43.50170 7.16005 3091 ft 187 kts
2026-05-01 14:39 43.51441 7.15877 2846 ft 176 kts
2026-05-01 14:39 43.52606 7.15757 2616 ft 161 kts
2026-05-01 14:40 43.53669 7.15652 2388 ft 146 kts
2026-05-01 14:40 43.54641 7.15558 2173 ft 137 kts
2026-05-01 14:40 43.55591 7.15485 1975 ft 136 kts
2026-05-01 14:40 43.56526 7.15430 1827 ft 135 kts
2026-05-01 14:41 43.57465 7.15390 1725 ft 136 kts
2026-05-01 14:41 43.58414 7.15340 1564 ft 136 kts
2026-05-01 14:41 43.59350 7.15296 1372 ft 135 kts
2026-05-01 14:41 43.60292 7.15250 1191 ft 135 kts
2026-05-01 14:42 43.61208 7.15469 975 ft 134 kts 20°
2026-05-01 14:42 43.62065 7.15964 767 ft 132 kts 38°
2026-05-01 14:42 43.62712 7.16863 701 ft 133 kts 51°
2026-05-01 14:42 43.63345 7.17810 611 ft 134 kts 49°
2026-05-01 14:43 43.63996 7.18724 471 ft 134 kts 46°
2026-05-01 14:43 43.64646 7.19636 258 ft 133 kts 48°
2026-05-01 14:43 43.65295 7.20551 60 ft 132 kts 47°
2026-05-01 14:43 43.65889 7.21377 28 ft 103 kts 44°
2026-05-01 14:44 43.66249 7.21873 29 ft 36 kts 41°
2026-05-01 14:44 43.66496 7.22053 27 ft 7 kts 18°
2026-05-01 14:44 43.66541 7.22042 28 ft 7 kts 316°
2026-05-01 14:45 43.66553 7.21978 29 ft 7 kts 252°
2026-05-01 14:45 43.66440 7.21815 31 ft 18 kts 224°
2026-05-01 14:45 43.66331 7.21664 33 ft 24 kts 225°
2026-05-01 14:46 43.66214 7.21506 34 ft 23 kts 225°
2026-05-01 14:46 43.65991 7.21197 30 ft 17 kts 225°
2026-05-01 14:46 43.65912 7.21088 28 ft 16 kts 224°
2026-05-01 14:47 43.65842 7.20992 27 ft 13 kts 225°
2026-05-01 14:47 43.65800 7.20906 26 ft 10 kts 275°
2026-05-01 14:47 43.65855 7.20854 27 ft 10 kts 348°
2026-05-01 14:48 43.65946 7.20804 30 ft 5 kts 287°
2026-05-01 14:48 43.65953 7.20756 31 ft 4 kts 281°
2026-05-01 14:48 43.65956 7.20739 31 ft 0 kts 281°
2026-05-01 14:49 43.65956 7.20738 31 ft 0 kts 281°